Terminal Aerodrome Forecast
Issued by NWS Upton, NY

Home | Current Version | Previous Version | Text Only | Print | Product List | Glossary On
Versions: 1 2 3 4 5 6 7 8 9 10 11 12 13 14 15 16 17 18 19 20 21 22 23 24 25 26 27 28 29 30 31 32 33 34 35 36 37
257
FTUS41 KOKX 221725
TAFJFK
TAF
KJFK 221725Z 2218/2324 05005KT 5SM BR OVC010
      TEMPO 2218/2222 4SM BR BKN008
     FM222300 07011G17KT 5SM BR OVC010
     FM230300 06015G25KT 6SM BR OVC010
     FM231200 06024G34KT 5SM -RA BR OVC010
     FM231500 06029G45KT 3SM RA BR OVC010
     FM232100 06029G55KT 4SM +RA BR OVC015=

USA.gov is the U.S. government's official web portal to all federal, state and local government web resources and services.